FENGYUN 1C DEB, 36184

Orbit data source: Space-Track

FENGYUN 1C DEB, 36184 is space debris in SSO originally from a launch on Mon, 10 May 1999 UTC launched from the Taiyaun Space Center, China (TSC). Fengyun 1C debris stems from the Chinese weather satellite Fengyun-1C, which was intentionally destroyed by a Chinese anti-satellite missile in 2007. This event dramatically increased the amount of space debris, with thousands of trackable fragments posing hazards to satellites and human spaceflight. The Fengyun 1C debris cloud has become a focal point in discussions about space sustainability and the need for international regulations to prevent the creation of new debris.

Loading next visibility...
Identifier
36184, 1999-025DTH
Orbit
SSO
Country
Flag of CNCN / PRC
Related business
Manufacturer
Unknown
Mission
Spacecraft
Bus & Motor
Unknown
Mass
Unknown
Launch date (UTC)
1999-05-10 (27 years ago)
Launch vehicle
Unknown
Launch site
Taiyaun Space Center, China (TSC)
Object type
Payload
Rocket body
Debris
Shape & HBR
Unknown shape, 0.1 m
Radar Cross Section
Medium (>0.1 m² and <1 m²)

Expand to show TLE details & history
Last TLE update: 1 week ago

TLE from 1 week ago
0 FENGYUN 1C DEB
1 36184U 99025DTH 26197.75170224  .00001553  00000-0  82930-3 0  9999
2 36184  98.5521 182.5083 0131952  83.7835 277.8349 14.10236830655572
Epoch: 2026-07-16T18:02Z
TLE epoch observation values (Epoch: 2026-07-16T18:02:27.073Z)
Latitude
-0.00007°
Longitude
-22.69315°
Altitude
849.689 km
Speed
7.434 km/s
True Right ascension
12h 10m 01s
True Declination
0° 00' 00"
Sunlit
Object was in daylight at epoch
Visualization orbit readout
Latitude
Unknown
Longitude
Unknown
Altitude
Unknown
Speed
Unknown
Apparent Right ascension
Unknown
Apparent Declination
Unknown
Sunlit
N/A
Visualization observer readout
Local Sidereal Time
20:26:26
Azimuth
Unknown
Elevation
Unknown
Doppler factor
Unknown
Orbital elements
Apogee altitude
951.177 km
Perigee altitude
760.273 km
Semi-major axis
7,233.862 km
Eccentricity
0.0132
Inclination
98.5521°
RAAN
182.5083°
Arg. of periapsis
83.7835°
True anomaly
276.33375°
Mean anomaly
277.8349°
Eccentric anomaly
277.08464°
Mean motion
3.52767 °/min
Orbital period
102.05 mins
BSTAR
0.0008293
Loading maneuver chart data...
Computing Atmospheric mass density...

Documentation

Showing up to 5 results
|